Temperature
21 23 24 24 24 25 24 22 21 21 21 22 21 21 22 23 23 22 22 22 22 22 22 22 22 21 21 21 21 21 20 20 20 20 20 19 19 19 19 18 18 18 18 18
21 23 23 23 24 24 24 24 23 22 21 21 22 22 21 22 22 21 22 22 22 22 22 21 21 21 21 21 21 21 20 20 20 20 19 19 19 18 18 18 18 18 18 17
19 20 22 21 23 23 23 22 22 21 20 20 20 20 20 21 21 21 21 21 22 21 21 21 21 21 21 21 20 20 20 20 20 19 19 19 19 18 18 18 18 17 17 17
17 19 20 20 21 23 22 21 20 20 20 20 20 20 21 21 21 21 21 21 21 21 21 21 21 21 21 20 20 20 20 19 19 19 19 19 18 18 18 18 17 17 17 17
16 18 19 20 22 22 21 19 19 19 19 20 20 19 19 20 21 21 21 21 21 21 21 21 21 20 20 20 20 19 19 19 19 19 18 18 18 18 17 17 17 17 16 16
16 18 18 19 21 22 20 18 19 19 18 19 19 17 17 19 20 20 20 20 20 20 20 20 20 20 20 19 19 19 18 18 18 18 18 17 17 17 17 16 16 16 16 16
16 16 17 19 20 21 19 17 19 19 19 19 18 18 19 19 19 19 19 19 19 19 19 19 19 19 19 19 18 18 18 18 18 17 17 17 17 17 17 16 16 16 16 16
15 16 16 19 19 18 17 18 19 19 19 19 19 19 19 19 19 19 19 19 18 18 18 18 18 18 18 18 18 18 17 17 17 17 17 17 16 16 16 16 16 15 15 15
14 15 16 18 18 18 19 18 19 19 19 19 19 19 19 19 18 18 18 18 18 18 18 17 17 17 17 17 17 17 17 17 17 16 16 16 16 16 16 15 15 15 15 15
14 15 16 17 18 18 18 18 18 19 19 19 18 18 18 18 18 18 17 17 17 17 17 17 16 16 16 16 16 16 16 16 16 16 16 16 15 15 15 15 15 15 15 15
13 14 16 17 17 18 18 18 18 18 18 18 18 17 17 17 17 17 17 17 17 17 16 16 16 16 16 16 16 16 16 15 15 15 15 15 15 15 15 15 15 15 15 14
13 14 14 16 17 17 17 17 17 17 17 17 17 17 17 17 16 16 16 16 16 16 16 16 16 15 15 15 15 15 15 15 15 15 15 15 14 14 15 15 14 14 14 14
16 16 16 16 16 16 16 16 16 16 16 16 16 16 16 16 16 16 16 16 16 15 15 15 15 15 15 15 15 15 15 14 14 14 14 14 14 14 14 14 14 14 14 14
16 16 16 16 16 16 16 16 16 16 16 16 16 15 15 15 15 15 15 15 15 15 15 15 15 15 15 14 14 14 14 14 14 14 14 14 14 14 14 14 14 13 13 13
16 16 16 15 15 15 15 15 15 15 15 15 15 15 15 15 15 15 15 15 15 14 14 14 14 14 14 14 14 14 14 14 14 14 14 14 14 13 13 13 13 13 13 13
15 15 15 15 15 15 15 15 15 15 14 14 14 14 14 14 14 14 14 14 14 14 14 14 14 14 13 13 13 13 13 13 13 13 13 13 13 13 13 13 13 13 13 12
14 14 14 14 14 14 14 14 14 14 14 14 14 14 14 14 14 14 14 14 14 14 14 13 13 13 13 13 13 13 13 13 13 13 13 13 13 13 13 13 12 12 12 12
14 14 14 14 14 14 14 14 14 14 14 13 13 13 13 13 13 13 13 13 13 13 13 13 13 13 13 13 13 12 12 12 12 13 13 13 12 12 12 12 12 12 11 11
13 13 13 13 13 13 13 13 13 13 13 13 13 13 12 12 12 12 12 12 12 12 13 13 13 12 12 12 12 12 12 12 12 12 12 12 12 12 11 11 11 11 11 11
13 13 13 12 12 13 13 13 13 13 13 13 12 12 12 12 12 12 12 12 12 12 12 12 12 12 12 12 12 12 12 12 12 11 11 11 11 11 11 11 11 11 10 10
12 12 12 12 12 12 12 12 12 12 12 12 12 12 12 12 12 12 12 11 12 12 12 12 12 12 12 11 11 11 11 11 11 11 11 11 11 11 10 10 10 10 10 10
12 12 12 12 12 12 12 12 12 12 12 12 12 11 11 11 11 11 11 11 11 11 11 11 11 11 11 11 11 11 11 11 11 10 10 10 10 10 10 10 10 9 9 9
11 11 11 11 11 11 11 12 12 11 11 11 11 11 11 11 11 11 11 11 11 11 11 11 11 11 10 10 10 10 10 10 10 10 10 10 10 10 9 9 9 9 9 8
11 11 11 11 11 11 11 11 11 11 11 11 11 11 11 11 11 11 11 11 11 11 11 10 10 10 10 10 10 10 10 10 10 9 9 9 9 9 9 9 9 9 8 8
11 11 11 11 11 11 11 11 11 11 11 10 10 10 10 10 10 10 10 10 10 10 10 10 10 10 10 9 9 9 9 9 9 9 9 9 9 9 9 8 8 8 8 8
11 11 11 11 11 11 11 11 10 10 10 10 10 10 10 10 10 10 10 10 10 10 10 9 9 9 9 9 9 9 9 9 9 9 9 8 8 8 8 8 8 8 8 7
11 11 11 11 11 11 10 10 10 10 10 10 10 10 10 10 10 9 9 9 9 9 9 9 9 9 9 9 9 9 9 9 9 8 8 8 8 8 8 8 7 7 7 7
Wind_Speed
3 3 2 4 6 6 3 5 7 7 7 8 9 8 7 7 7 7 7 6 5 5 6 5 5 5 5 5 7 8 8 9 9 9 8 7 7 7 7 7 7 6 5 6
4 5 5 5 6 5 4 3 2 2 3 4 3 5 4 5 7 8 7 5 4 4 5 6 6 6 5 4 5 6 8 9 8 7 7 7 7 7 6 6 6 5 5 6
3 6 5 5 4 2 3 4 1 2 3 1 5 5 5 4 5 6 6 4 2 4 5 5 5 6 6 5 4 6 7 7 7 7 8 8 8 7 7 7 6 5 5 5
0 3 3 7 4 3 5 6 4 2 2 3 4 4 4 5 7 5 4 3 3 3 4 4 4 4 5 5 4 5 5 6 6 6 7 8 7 8 7 6 6 6 6 6
3 2 6 6 5 2 2 4 5 4 4 4 5 7 4 2 4 5 4 4 3 3 3 4 4 4 5 4 4 4 4 5 5 6 6 6 7 8 7 6 6 5 5 5
4 3 5 5 7 3 5 2 5 3 3 2 4 3 2 2 1 2 2 2 2 2 2 3 3 4 5 5 4 4 4 4 4 4 5 5 6 5 4 5 5 5 5 5
4 4 6 5 7 4 3 4 4 1 2 2 2 4 4 2 2 3 2 2 2 2 2 1 2 3 4 4 4 4 3 3 3 4 4 4 4 3 4 4 4 4 4 4
2 3 6 5 4 2 4 3 1 2 1 2 2 1 1 2 3 3 2 2 2 2 1 0 2 3 3 3 3 2 3 3 3 2 3 3 3 3 3 4 3 3 3 3
4 5 5 2 2 2 3 2 2 2 0 2 2 0 0 1 2 3 2 2 2 2 2 1 1 2 2 2 2 2 2 2 2 2 2 2 3 4 3 4 4 3 3 3
2 2 3 2 3 3 3 2 2 2 1 2 1 1 1 1 1 2 2 2 1 1 1 2 2 2 3 3 2 2 2 2 2 2 1 1 2 2 3 3 4 4 4 4
3 5 4 4 4 3 4 4 4 3 2 1 1 1 2 2 2 2 2 2 1 2 2 3 2 2 2 2 2 2 2 2 2 2 2 2 1 2 3 3 5 5 4 5
6 6 4 5 4 3 3 3 3 2 3 3 1 1 2 2 3 2 2 2 1 1 1 3 2 2 2 2 3 3 1 2 2 2 2 2 1 1 3 2 2 4 6 6
7 6 5 5 4 2 2 3 3 2 2 2 2 3 3 3 3 2 2 2 3 3 3 3 3 3 3 2 2 3 3 3 2 3 3 3 2 2 1 3 3 2 3 5
5 3 4 5 4 4 3 4 3 3 3 3 3 3 3 3 2 2 3 4 4 4 4 4 4 4 4 3 3 3 3 3 3 3 3 3 3 3 3 3 1 1 2 4
6 5 6 6 5 4 4 3 3 4 4 4 3 3 2 3 3 3 4 3 3 3 3 3 4 4 3 2 3 3 2 2 2 3 2 3 3 3 3 3 3 2 1 1
5 4 4 5 6 5 5 4 5 5 5 4 4 4 5 5 4 3 3 2 3 3 3 3 4 4 3 2 2 1 2 3 2 2 2 2 2 3 3 3 3 2 2 2
3 5 5 6 6 5 5 5 5 5 3 3 4 4 4 3 2 2 2 2 3 3 3 4 4 3 2 2 2 2 2 2 2 2 2 3 2 3 3 3 3 3 2 3
4 5 5 5 5 5 5 4 3 2 2 2 2 2 2 3 3 3 3 2 1 1 2 3 3 2 1 1 1 1 1 1 1 2 2 2 2 2 2 3 3 3 2 1
3 3 4 3 4 4 4 3 2 2 2 1 1 2 2 3 3 2 1 0 0 1 3 2 2 2 1 1 1 1 1 1 1 0 1 2 2 2 2 2 2 2 2 1
4 3 1 2 2 1 1 2 2 2 1 2 2 2 1 1 1 1 1 1 3 3 3 1 1 1 1 1 1 1 1 1 1 1 1 1 2 2 2 2 2 2 2 1
3 3 3 2 2 2 1 1 1 1 1 2 3 3 3 2 2 2 2 2 4 3 1 1 1 0 1 1 0 1 1 1 2 2 2 2 2 2 2 2 2 2 2 2
3 2 2 2 1 2 2 2 1 1 1 0 1 2 1 1 2 1 2 3 3 2 1 1 1 0 1 1 1 0 0 1 1 2 2 2 2 2 2 2 2 2 2 2
1 1 1 1 1 2 2 2 2 1 1 1 0 1 2 2 2 2 2 3 1 1 1 1 1 1 0 1 1 1 1 1 1 1 1 1 2 2 2 2 2 2 2 1
2 2 2 2 2 2 3 3 2 1 1 1 0 0 1 0 1 1 2 2 2 2 1 2 2 1 1 1 1 1 1 1 1 1 1 1 1 1 2 2 2 2 2 2
2 2 2 2 3 2 2 2 2 2 2 1 1 1 1 0 1 1 0 1 1 1 1 1 2 1 1 1 2 2 2 2 2 2 2 1 1 1 2 2 2 2 2 2
2 2 2 2 1 1 2 1 1 1 1 1 1 1 1 1 1 1 1 1 2 2 1 1 1 0 1 1 2 2 2 2 2 2 2 2 1 1 1 2 2 2 2 2
2 2 2 3 3 2 2 1 1 1 1 1 1 1 1 1 2 2 2 1 1 1 1 0 1 1 1 1 1 1 2 2 2 2 2 2 2 1 1 2 1 1 2 2
Wind_Direction
224 254 312 318 309 320 292 206 198 229 215 221 203 179 172 161 148 128 117 119 133 148 153 153 160 170 170 176 178 181 186 194 203 203 202 205 209 204 204 204 207 206 209 218
345 344 351 330 322 323 317 303 245 201 255 253 170 116 125 141 139 135 129 126 123 136 146 156 161 163 165 178 183 177 185 201 205 199 196 200 205 201 200 205 209 207 215 219
306 320 1 316 296 337 5 355 58 190 228 168 106 120 141 138 131 137 125 121 150 161 158 163 169 171 171 180 184 180 187 195 200 203 201 203 207 201 204 207 203 205 218 222
232 18 261 248 283 72 69 26 25 84 122 130 132 145 132 124 126 128 126 148 188 176 162 164 164 168 166 150 164 184 193 199 203 203 208 205 201 205 209 207 207 211 216 222
131 213 272 297 324 358 89 11 3 72 79 75 82 72 42 59 129 146 159 165 178 181 164 154 154 161 147 149 156 171 202 204 201 197 203 204 205 210 207 203 207 214 217 218
153 179 232 260 304 316 99 32 334 74 93 95 78 79 273 282 126 113 123 142 132 123 116 135 169 155 145 153 163 192 220 211 199 186 188 202 205 206 206 207 212 215 225 224
182 209 252 280 310 11 101 237 280 84 113 101 127 193 217 218 167 152 141 135 119 104 114 164 180 150 156 160 179 200 209 202 199 184 184 197 195 197 199 205 212 223 231 233
165 193 248 311 19 86 211 230 82 76 97 103 116 107 140 133 149 148 137 128 136 130 138 195 141 144 162 183 198 182 178 173 168 167 183 190 189 208 205 198 208 225 229 251
188 211 243 312 99 176 155 103 82 82 88 130 121 134 91 108 155 168 161 166 163 157 170 234 212 154 169 229 207 176 171 173 166 163 180 189 197 205 207 197 196 209 213 226
8 285 303 356 41 44 54 44 20 50 78 108 133 202 236 240 243 203 194 207 183 124 174 216 215 182 198 218 202 174 179 192 188 178 205 231 222 213 207 203 199 204 208 218
293 288 332 340 354 2 13 15 22 26 20 74 138 246 236 239 254 236 216 228 221 193 211 226 212 203 212 193 157 169 198 210 207 201 198 225 255 255 222 221 207 199 207 204
238 241 224 266 287 333 354 332 322 338 344 336 303 267 271 246 245 230 221 221 210 216 244 240 220 216 220 192 164 161 195 237 220 214 215 202 205 315 340 288 255 219 211 201
225 233 224 247 276 296 280 282 288 291 270 289 279 261 259 246 236 226 221 215 210 215 228 234 210 218 223 205 177 176 200 224 225 218 213 205 195 189 243 341 353 320 244 227
236 234 265 266 271 279 278 279 277 273 264 251 254 254 242 236 226 220 227 226 219 214 226 229 214 221 222 196 186 202 212 224 223 224 219 208 199 199 193 193 215 307 301 249
254 235 237 252 262 270 275 280 288 283 277 266 250 235 223 214 215 227 238 226 208 206 219 212 213 230 223 198 203 223 226 225 236 235 219 208 198 194 194 193 191 198 218 287
261 268 272 274 271 268 271 265 262 265 267 265 244 230 228 223 220 219 228 210 193 210 219 215 225 234 205 178 198 250 264 256 249 228 224 220 201 188 190 191 188 187 198 211
258 271 277 278 271 264 258 255 255 258 248 246 250 242 231 222 231 241 243 229 204 204 204 204 220 231 207 179 193 226 240 259 254 238 227 219 206 198 193 187 181 178 200 209
220 239 248 255 263 266 270 263 247 237 228 235 246 242 241 219 218 234 247 249 207 250 242 220 204 190 155 137 194 237 236 242 243 240 232 203 190 185 179 175 176 178 192 203
287 283 281 271 266 256 248 243 247 237 235 170 152 220 238 225 217 230 246 124 129 269 272 238 194 167 185 238 242 229 224 252 263 241 200 181 167 165 164 159 168 187 178 177
319 314 314 317 308 265 231 256 273 262 211 171 164 170 195 237 236 204 166 185 221 230 238 232 155 178 226 242 214 219 230 226 196 193 208 200 182 178 172 166 165 168 173 175
345 357 15 12 351 345 360 351 305 261 243 181 176 191 205 219 206 190 170 242 276 261 243 169 132 184 287 300 257 206 217 203 181 183 186 191 183 177 176 175 176 180 181 184
350 11 16 25 30 346 336 344 8 18 348 314 189 186 191 238 230 216 221 226 249 261 222 141 155 194 312 344 58 49 231 180 159 160 174 179 174 175 176 170 175 186 189 189
4 23 13 2 322 297 322 360 27 49 53 40 346 212 212 226 216 186 244 260 225 205 171 162 185 202 226 86 115 115 87 95 124 151 175 185 182 180 173 165 170 178 188 197
353 344 337 340 360 16 356 341 358 16 55 74 64 341 211 213 320 248 213 222 205 183 167 181 187 186 128 96 106 105 105 110 123 132 151 167 168 162 164 163 163 170 174 170
342 339 346 4 7 351 325 332 5 16 24 13 356 347 334 181 192 251 201 160 168 150 146 180 175 172 115 121 135 138 141 145 146 138 138 153 170 160 159 160 168 175 179 183
345 339 333 335 330 321 324 335 352 348 14 6 6 356 352 9 52 77 91 118 142 136 133 167 199 197 132 151 167 168 155 144 132 130 138 141 140 144 154 155 160 174 176 182
341 342 356 1 352 345 343 358 12 6 21 70 41 4 22 56 70 67 70 84 102 115 125 140 126 117 124 146 141 142 136 131 127 125 127 130 136 143 150 154 166 171 162 161
Height
1490 1485 1482 1483 1482 1480 1484 1490 1498 1493 1488 1481 1476 1476 1477 1478 1480 1482 1483 1485 1486 1488 1489 1490 1492 1494 1496 1498 1499 1501 1504 1505 1507 1509 1511 1513 1514 1515 1517 1518 1519 1520 1521 1521
1492 1484 1483 1484 1480 1479 1479 1479 1482 1483 1484 1475 1474 1476 1478 1478 1479 1480 1481 1483 1485 1486 1487 1488 1489 1491 1493 1494 1496 1498 1499 1501 1503 1505 1507 1508 1510 1511 1512 1513 1514 1515 1516 1517
1503 1491 1487 1495 1483 1480 1481 1479 1480 1485 1483 1475 1475 1476 1477 1478 1479 1480 1480 1482 1483 1484 1485 1486 1487 1489 1489 1492 1493 1494 1495 1497 1498 1500 1502 1503 1505 1507 1508 1508 1509 1510 1511 1512
1506 1500 1508 1494 1477 1476 1479 1480 1477 1476 1476 1475 1474 1475 1476 1477 1478 1480 1481 1481 1482 1483 1484 1485 1486 1487 1487 1488 1490 1492 1492 1493 1495 1496 1497 1499 1500 1501 1503 1504 1505 1505 1506 1508
1509 1510 1503 1487 1478 1477 1481 1487 1480 1478 1477 1476 1476 1476 1479 1478 1477 1478 1479 1480 1481 1481 1482 1482 1483 1484 1485 1486 1487 1487 1489 1489 1490 1491 1492 1494 1495 1496 1497 1498 1499 1500 1502 1503
1505 1508 1509 1492 1477 1473 1477 1491 1482 1479 1478 1477 1476 1483 1483 1479 1478 1478 1478 1479 1478 1479 1479 1480 1481 1481 1482 1482 1483 1483 1484 1484 1486 1487 1489 1490 1491 1492 1493 1494 1495 1496 1497 1499
1503 1506 1499 1484 1477 1474 1491 1493 1482 1479 1478 1478 1478 1479 1479 1478 1477 1477 1478 1477 1477 1477 1477 1478 1478 1478 1478 1478 1479 1480 1481 1482 1483 1483 1485 1486 1486 1488 1489 1491 1491 1492 1493 1494
1503 1506 1502 1482 1478 1483 1486 1481 1480 1479 1478 1477 1477 1476 1476 1475 1475 1475 1476 1476 1475 1475 1475 1475 1475 1475 1475 1475 1476 1477 1478 1479 1480 1481 1481 1482 1483 1485 1486 1487 1487 1488 1488 1489
1496 1497 1487 1482 1481 1481 1480 1480 1479 1478 1478 1477 1476 1476 1475 1474 1474 1474 1474 1474 1474 1473 1472 1473 1473 1473 1473 1473 1474 1474 1475 1476 1477 1478 1478 1479 1480 1481 1482 1483 1483 1483 1484 1485
1490 1487 1484 1482 1481 1480 1480 1479 1478 1477 1477 1476 1476 1475 1474 1473 1472 1471 1471 1471 1471 1471 1471 1470 1470 1470 1471 1471 1472 1473 1473 1474 1474 1475 1475 1476 1477 1477 1478 1478 1479 1479 1480 1481
1490 1485 1483 1481 1481 1480 1479 1478 1477 1476 1475 1474 1474 1473 1472 1471 1471 1469 1469 1469 1469 1468 1468 1468 1468 1468 1469 1469 1469 1470 1470 1470 1471 1472 1471 1472 1473 1473 1474 1474 1475 1475 1476 1477
1488 1483 1483 1481 1479 1478 1477 1476 1475 1474 1473 1473 1472 1471 1470 1469 1468 1467 1467 1467 1466 1465 1465 1465 1465 1465 1466 1466 1466 1466 1467 1467 1467 1468 1468 1468 1469 1469 1470 1470 1471 1472 1473 1473
1479 1478 1478 1477 1476 1475 1474 1473 1472 1472 1471 1470 1469 1469 1468 1467 1466 1465 1464 1464 1464 1464 1464 1462 1461 1462 1463 1463 1463 1463 1463 1463 1464 1464 1465 1465 1465 1465 1465 1467 1467 1467 1469 1469
1475 1475 1474 1473 1472 1471 1470 1469 1468 1468 1467 1466 1465 1464 1464 1463 1463 1462 1462 1461 1461 1461 1461 1460 1460 1460 1460 1459 1460 1460 1460 1460 1460 1460 1461 1461 1461 1462 1462 1463 1463 1464 1465 1465
1471 1470 1469 1468 1468 1467 1466 1465 1464 1463 1462 1462 1461 1459 1459 1459 1459 1459 1459 1458 1458 1458 1458 1458 1457 1457 1457 1457 1457 1456 1456 1456 1456 1456 1457 1457 1458 1458 1459 1460 1460 1461 1461 1461
1466 1465 1464 1463 1463 1462 1461 1460 1459 1458 1457 1457 1456 1455 1455 1454 1454 1455 1455 1455 1454 1454 1454 1454 1454 1454 1454 1454 1454 1454 1453 1453 1453 1453 1454 1454 1454 1455 1455 1456 1456 1456 1457 1457
1461 1460 1459 1458 1457 1456 1456 1455 1454 1452 1452 1452 1452 1451 1451 1451 1451 1451 1451 1451 1451 1450 1450 1451 1451 1451 1451 1451 1451 1450 1450 1450 1450 1450 1450 1450 1450 1451 1451 1452 1452 1452 1453 1454
1456 1455 1454 1454 1452 1451 1451 1450 1450 1449 1449 1448 1448 1447 1447 1447 1447 1447 1447 1447 1447 1447 1447 1447 1447 1447 1447 1447 1447 1447 1447 1447 1447 1447 1447 1447 1448 1448 1448 1448 1448 1449 1450 1451
1452 1451 1450 1449 1448 1447 1446 1446 1446 1446 1445 1445 1444 1444 1444 1444 1444 1444 1444 1444 1444 1444 1444 1444 1444 1444 1445 1445 1445 1445 1445 1444 1444 1444 1445 1445 1445 1445 1446 1445 1446 1446 1446 1446
1448 1447 1446 1445 1445 1444 1444 1443 1443 1443 1442 1442 1442 1442 1442 1441 1441 1441 1441 1441 1441 1441 1441 1441 1441 1442 1442 1443 1443 1443 1442 1442 1442 1442 1442 1442 1443 1443 1443 1443 1443 1444 1443 1443
1446 1445 1444 1444 1444 1443 1442 1442 1441 1440 1440 1440 1440 1440 1440 1439 1439 1439 1438 1438 1438 1439 1439 1439 1439 1439 1440 1440 1440 1440 1439 1439 1439 1439 1439 1440 1440 1440 1440 1440 1440 1441 1441 1440
1445 1444 1444 1443 1443 1442 1441 1441 1440 1439 1438 1438 1438 1437 1437 1437 1437 1436 1436 1436 1436 1436 1436 1436 1436 1437 1437 1437 1437 1437 1437 1436 1436 1436 1437 1437 1437 1437 1437 1437 1438 1438 1438 1438
1446 1445 1444 1443 1442 1441 1440 1439 1438 1437 1437 1436 1436 1435 1435 1435 1434 1434 1433 1434 1433 1433 1434 1434 1434 1434 1435 1435 1434 1434 1434 1434 1434 1435 1435 1435 1435 1435 1435 1435 1436 1436 1436 1435
1446 1445 1444 1442 1441 1440 1439 1438 1437 1436 1436 1435 1435 1434 1434 1433 1433 1432 1432 1431 1431 1432 1432 1432 1433 1433 1433 1433 1433 1433 1433 1433 1433 1433 1433 1433 1433 1433 1433 1433 1433 1433 1433 1432
1446 1445 1444 1442 1441 1440 1439 1437 1436 1435 1434 1434 1433 1433 1432 1432 1431 1431 1430 1430 1430 1431 1431 1431 1432 1432 1432 1431 1431 1431 1431 1431 1431 1431 1430 1430 1430 1430 1430 1430 1430 1430 1429 1429
1447 1446 1444 1443 1442 1440 1439 1437 1436 1435 1434 1433 1432 1432 1431 1430 1430 1429 1429 1429 1429 1429 1430 1430 1430 1430 1430 1430 1429 1429 1429 1429 1428 1428 1428 1428 1428 1428 1428 1427 1427 1427 1426 1425
1447 1446 1445 1443 1442 1440 1439 1438 1436 1435 1434 1433 1432 1431 1430 1430 1429 1429 1429 1428 1428 1428 1428 1429 1429 1428 1428 1428 1428 1427 1427 1427 1426 1426 1426 1426 1426 1425 1425 1424 1424 1424 1423 1422